Regional Weather Roundup
Issued by NWS Albany, NY

Current Version | Previous Version | Graphics & Text | Print | Product List | Glossary On
Versions: 1 2 3 4 5 6 7 8 9 10 11 12 13 14 15 16 17 18 19 20 21 22 23 24 25 26 27 28 29 30 31 32 33 34 35 36 37 38 39 40 41 42 43 44 45 46 47 48 49 50
000
ASUS41 KALY 070310
RWRALY

NEW YORK STATE HOURLY WEATHER ROUNDUP
NATIONAL WEATHER SERVICE ALBANY NY
1100 PM EDT SAT JUN 06 2020

NOTE: "FAIR" INDICATES FEW OR NO CLOUDS BELOW 12,000 FEET WITH NO
SIGNIFICANT WEATHER AND/OR NO OBSTRUCTIONS TO VISIBILITY.

NYZ032-033-038>043-046>054-057>066-NYZ062>081-082-084-070400-
EAST


CITY           SKY/WX    TMP DP  RH WIND       PRES   REMARKS
ALBANY         CLEAR     62  46  55 NW7       29.84S
GLENS FALLS    CLEAR     60  48  64 NW10      29.83S
POUGHKEEPSIE   CLEAR     68  47  46 NW6       29.81S
NEWBURGH       CLEAR     64  48  55 NW7       29.83S
MONTGOMERY     PTCLDY    65  46  50 NW6       29.83R
WHITE PLAINS   CLEAR     70  43  37 NW14      29.80R
ISLIP          PTCLDY    72  49  44 N13       29.78R
NEW YORK CITY  PTCLDY    77  43  29 NW18G26   29.79R
CENTRAL PARK   CLEAR     75  43  31 MISG      29.83R
$$

NYZ005>009-017-018-044>046-055-056-070400-
CENTRAL


CITY           SKY/WX    TMP DP  RH WIND       PRES   REMARKS
FULTON         CLOUDY    57  53  86 NW3       29.92S
SYRACUSE       PTCLDY    60  51  72 NW6       29.92R
ROME           PTCLDY    58  52  80 N3        29.91R
ELMIRA         PTCLDY    59  52  77 W6        29.92R
BINGHAMTON     PTCLDY    57  51  80 NW6       29.91S
MONTICELLO     CLEAR     61  47  59 NW5       29.89S
$$

NYZ026>034-041>043-087-070400-
NORTH


CITY           SKY/WX    TMP DP  RH WIND       PRES   REMARKS
WATERTOWN      CLEAR     56  54  93 N3        29.92R
FORT DRUM      NOT AVBL
OGDENSBURG     CLOUDY    61  55  82 N7        29.90R
MASSENA        CLOUDY    57  55  93 CALM      29.91R
SARANAC LAKE   RAIN      52  50  93 N5        29.89R FOG
PLATTSBURGH    LGT RAIN  56  54  93 W6        29.86R
$$

NYZ001>004-010>016-019>021-085-070400-
WEST


CITY           SKY/WX    TMP DP  RH WIND       PRES   REMARKS
NIAGARA FALLS  CLEAR     61  50  67 N8        29.97R
BUFFALO        PTCLDY    60  50  69 N12       29.98R
DUNKIRK        CLOUDY    63  50  62 N6        29.99R
JAMESTOWN      CLEAR     58  49  72 N8        30.01R
WELLSVILLE     CLEAR     59  49  69 NW10      29.99R
ROCHESTER      LGT RAIN  63  50  62 N8        29.96R
PENN YAN       PTCLDY    59  54  83 W3        29.94R
$$

             KEY
       WCI = WIND CHILL INDEX
       VSB = VISIBILITY
       HX  = HEAT INDEX
$$




USA.gov is the U.S. government's official web portal to all federal, state and local government web resources and services.